#timestamp,LO_Frequency,Hit,StdDev 
1458648015.2,286046993.0,P
1458648035.1,286046990.9,N
1458648036.0,286046990.9,N
1458648055.8,286046991.0,N
1458648075.6,286046987.7,Y
1458648095.5,286046996.0,P
1458648115.3,286046993.3,N
1458648135.1,286046996.3,N
1458648155.9,286046994.6,N
1458648175.7,286046991.1,Y
1458648195.5,286046994.4,P
1458648215.4,286046990.4,P
1458648235.2,286046990.9,P
1458648255.0,286046990.6,Y
1458648255.9,286046990.6,P
1458648275.8,286047003.8,P
1458648295.6,286047003.4,N
1458648315.4,286047004.4,N
1458648335.3,286047002.2,N
1458648355.1,286047000.2,N
1458648356.0,286047000.2,N
1458648375.8,286047002.2,N
1458648395.7,286047002.5,N
1458648415.5,286047003.8,N
1458648435.3,286047003.6,N
1458648455.1,286047005.9,N
1458648475.9,286047003.4,N
1458648495.7,286047004.2,N
1458648515.5,286047004.2,N
1458648535.4,286047008.8,N
1458648555.2,286047010.5,N
1458648575.0,286047009.4,N
1458648575.9,286047009.4,N
1458648595.8,286047011.8,N
1458648615.6,286047012.1,N
1458648635.4,286047013.8,N
1458648655.3,286047011.8,N
1458648675.1,286047014.5,N
1458648676.0,286047014.5,N
1458648695.8,286047021.8,Y
1458648715.7,286047018.7,P
1458648735.5,286047017.9,N
1458648755.3,286047020.9,P
1458648775.2,286047026.4,Y
1458648795.9,286047008.5,P
1458648815.7,286047006.8,N
1458648835.6,286047007.6,N
1458648855.4,286047008.5,N
1458648875.2,286047006.3,N
1458648895.1,286047006.9,N
1458648896.0,286047006.9,N
1458648915.8,286047006.0,N
1458648935.6,286047003.3,N
1458648955.4,286047007.1,N
1458648975.3,286047003.1,N
1458648995.1,286047002.8,N
1458649015.8,286046998.1,N
1458649035.7,286046993.4,N
1458649055.5,286046997.1,N
1458649075.3,286046998.7,N
1458649095.2,286046999.6,N
1458649115.9,286046997.1,N
1458649135.7,286046999.3,N
1458649155.6,286046999.8,N
1458649175.4,286047000.4,N
1458649195.2,286047000.8,N
1458649215.0,286047001.9,N
1458649216.0,286047001.9,N
1458649235.8,286047000.3,N
1458649255.6,286046999.7,N
1458649275.4,286047003.5,N
1458649295.3,286047007.4,N
1458649315.1,286047008.5,N
1458649335.8,286047003.3,N
1458649355.7,286047004.2,N
1458649375.5,286047001.6,N
1458649395.3,286047004.8,N
1458649415.2,286047001.7,N
1458649435.9,286046998.1,N
1458649455.7,286046998.7,N
1458649475.6,286046998.4,N
1458649495.4,286047001.2,N
1458649515.2,286047002.8,N
1458649535.0,286047002.6,N
1458649536.0,286047002.6,N
1458649555.8,286047002.3,N
1458649575.6,286047002.9,N
1458649595.4,286047003.4,N
1458649615.3,286047003.5,N
1458649635.1,286047004.2,N
1458649655.8,286046999.8,N
1458649675.7,286047001.7,N
1458649695.5,286047003.2,N
1458649715.3,286047001.6,N
1458649735.2,286047002.9,N
1458649755.9,286047005.0,N
1458649775.7,286047000.2,N
1458649795.6,286047001.2,N
1458649815.4,286046995.0,N
1458649835.2,286046995.8,N
1458649855.1,286046994.4,N
1458649856.0,286046994.4,N
1458649875.8,286046993.5,N
1458649895.6,286046996.0,N
1458649915.4,286046995.5,N
1458649935.3,286046997.3,N
1458649955.1,286046996.1,N
1458649975.8,286046997.6,N
1458649995.7,286046997.2,N
1458650015.5,286046992.8,N
1458650035.3,286046988.6,Y
1458650055.2,286046990.1,P
1458650075.0,286046989.7,N
1458650075.9,286046989.7,N
1458650095.7,286046989.2,N
1458650115.6,286046991.9,N
1458650135.4,286046993.1,N
1458650155.2,286046995.7,N
1458650175.1,286046992.9,N
1458650176.0,286046992.9,N
1458650195.8,286046994.2,N
1458650215.6,286046989.2,Y
1458650235.5,286046996.0,P
1458650255.3,286046997.5,N
1458650275.1,286046997.6,N
1458650295.9,286046996.7,N
1458650315.7,286047001.6,N
1458650335.5,286047001.7,N
1458650355.4,286047002.8,N
1458650375.2,286047001.0,N
1458650395.0,286047000.2,N
1458650395.9,286047000.2,N
1458650415.8,286047000.6,N
1458650435.6,286047001.2,N
1458650455.4,286047002.4,N
1458650475.2,286047001.4,N
1458650495.1,286047004.7,N
1458650496.0,286047004.7,N
1458650515.8,286047005.3,N
1458650535.6,286047007.6,N
1458650555.5,286047003.1,N
1458650575.3,286046999.8,N
1458650595.1,286047002.1,N
1458650615.9,286046999.8,N
1458650635.7,286047003.9,N
1458650655.5,286047005.7,N
1458650675.4,286047004.1,N
1458650695.2,286047000.9,N
1458650715.0,286046998.2,N
1458650715.9,286046998.2,N
1458650735.8,286047002.1,N
1458650755.6,286047002.2,N
1458650775.4,286047002.0,N
1458650795.2,286047002.6,N
1458650815.1,286047000.2,N
1458650816.0,286047000.2,N
1458650835.8,286046995.3,N
1458650855.6,286046996.4,N
1458650875.5,286046996.7,N
1458650895.3,286047001.0,N
1458650915.1,286046999.1,N
1458650935.9,286046997.8,N
1458650955.7,286046998.9,N
1458650975.5,286047001.0,N
1458650995.4,286046996.7,N
1458651015.2,286046997.0,N
1458651035.0,286046996.7,N
1458651035.9,286046996.7,N
1458651055.8,286046999.4,N
1458651075.6,286046998.9,N
1458651095.4,286047002.7,N
1458651115.3,286047001.3,N
1458651135.1,286047003.9,N
1458651136.0,286047003.9,N
1458651155.8,286047005.1,N
1458651175.7,286047009.8,Y
1458651195.5,286047013.6,P
1458651215.3,286047014.0,N
1458651235.2,286047014.5,N
1458651255.9,286047014.8,N
1458651275.7,286047019.9,Y
1458651295.6,286047010.8,P
1458651315.4,286047008.0,P
1458651335.2,286047007.0,P
1458651355.0,286047005.2,N
1458651356.0,286047005.2,N
1458651375.8,286047003.1,N
1458651395.6,286047001.7,N
1458651415.4,286047001.6,N
1458651435.3,286047000.9,N
1458651455.1,286046998.2,N
1458651475.8,286046999.1,N
1458651495.7,286046995.3,N
1458651515.5,286046999.1,N
1458651535.3,286047001.2,N
1458651555.2,286046999.2,N
1458651575.9,286046994.9,N
1458651595.7,286046997.7,N
